星链-5796 (STARLINK-5796 )

导读

STARLINK-5796是美国太空探索技术公司SpaceX星链卫星互联网项目中的卫星,于2023年3月17日发射升空,属于星链低轨卫星星座组网卫星,承载卫星互联网通信服务相关任务,运行在近地轨道,服务全球宽带互联网接入,是美国星链大规模星座部署进程中的组成单元。

基本信息
目录编号:
55916
目录名称:
STARLINK-5796
国际标识:
2023-037C
轨道中心:
EARTH
卫星名称:
星链-5796
卫星全名:
星链-5796 (STARLINK-5796 )
卫星状态:
在轨 (已飞行1268 天)
发射日期:
2023-03-17 UTC
国别 :
美国 (US)
星等 :
--
轨道信息
数据来源 国际轨道数据
星历时间: 2026-09-04T16:04:46+0800
17小时前
查看轨道信息
半长轴: 6950.172km
偏心率: 0.0003557
轨道倾角: 69.999°
近地点辐角 265.801°
升交点赤经 214.148°
平近点角 94.274°
近地点: 569.562km
远地点: 574.508km
周期: 96.107分钟
每日圈数: 14.98337
详细信息
固有亮度:
5
最大亮度:
2.5
卫星平台:
Starlink v1.5
覆盖范围:
全球
运营商:
太空探索技术公司
运营商所在国:
美国
制造商(研发单位):
太空探索技术公司
制造商所在国:
美国
使用方式:
暂无
卫星简介
星链(Starlink)计划是由太空探索技术公司(SpaceX)提出的一个巨型低轨卫星互联网星座项目,计划在2019年至2024年间在太空搭建由约1.2万颗卫星组成的“星链”网络,其中1584颗将部署在地球上空550千米处的近地轨道,并从2020年开始工作。该卫星仍在工作。
2D轨道图
3D轨道图
轨道高度分析图
轨道倾角分析图
轨道综合分析图
查看轨道综合分析图
交会数据列表
事件ID 空间交会对象 最接近时刻(TCA) 交会距离 交会风险概率(CRP) 交会风险指数(CRI) 操作
CDM_260906-083904-005705-591623
VELOX 1 (40057)
2026-09-06T
08:39:26+0000
0.184 km
中距离
6.842995E-4 高风险 0.92
CDM_260905-180605-591606-489822
2026-09-05T
18:06:37+0000
1.043 km
极远距离
2.003295E-5 中风险 0.61
CDM_260906-005602-229605-591623
2026-09-06T
00:56:05+0000
2.017 km
极远距离
2.736387E-6 低风险 0.44
CDM_260905-235004-005705-591622
VELOX 1 (40057)
2026-09-05T
23:50:30+0000
1.838 km
极远距离
2.290457E-6 低风险 0.42